GW0458 Weather Reports


Display with metric or nautical units.
time (UTC)temp
F
wind
direction
speed
MPH
gust
MPH
rain 1hr
in
rain 24hr
in
rain mn
in
humidity
%
barometer
mb
20260505041606 62 200 0.0 0.0 0.00 0.00 0.00 78 1018.4
20260505034605 64 201 0.0 0.0 0.00 0.00 0.00 74 1018.0
20260505031600 68 213 0.0 0.0 0.00 0.00 0.00 67 1017.3
20260505024558 70 205 0.0 0.0 0.00 0.00 0.00 66 1016.9
20260505021553 73 208 0.0 0.0 0.00 0.00 0.00 62 1016.9
20260505014549 75 206 0.0 0.0 0.00 0.00 0.00 57 1016.5
20260505011548 76 206 0.0 0.0 0.00 0.00 0.00 55 1016.7
20260505004546 78 219 0.0 1.0 0.00 0.00 0.00 48 1016.8
20260505001545 77 216 1.0 1.0 0.00 0.00 0.00 47 1016.9
20260504234545 77 208 0.0 1.0 0.00 0.00 0.00 44 1017.1
20260504231543 78 206 1.0 1.0 0.00 0.00 0.00 41 1017.1
20260504224542 79 205 0.0 0.0 0.00 0.00 0.00 39 1017.5
20260504221542 80 204 1.0 1.0 0.00 0.00 0.00 38 1018.0
20260504214538 79 212 0.0 1.0 0.00 0.00 0.00 40 1018.3
20260504211537 80 217 1.0 1.0 0.00 0.00 0.00 40 1018.1
20260504204532 79 201 0.0 0.0 0.00 0.00 0.00 43 1018.4
20260504201527 78 210 0.0 0.0 0.00 0.00 0.00 43 1018.1
20260504194525 79 217 1.0 1.0 0.00 0.00 0.00 44 1018.7
20260504191521 79 211 0.0 0.0 0.00 0.00 0.00 44 1018.7
20260504184521 77 214 1.0 1.0 0.00 0.00 0.00 47 1018.7
20260504181521 77 222 1.0 1.0 0.00 0.00 0.00 48 1018.9
20260504174519 75 215 0.0 1.0 0.00 0.00 0.00 51 1019.1
20260504171517 74 195 1.0 1.0 0.00 0.00 0.00 53 1018.8
20260504081435 56 191 1.0 1.0 0.00 0.00 0.00 86 1016.8